DW6794 Weather Reports


Display with metric or nautical units.
time (UTC)temp
F
wind
direction
speed
MPH
gust
MPH
rain 1hr
in
rain 24hr
in
rain mn
in
humidity
%
barometer
mb
20160726061732 74 347 0.0 0.0 0.00 0.00 0.00 79 1011.9
20160726060732 74 347 0.0 0.0 0.00 0.00 0.00 79 1011.9
20160726055732 74 347 0.0 0.0 0.00 0.00 0.00 78 1011.9
20160726054732 74 347 0.0 0.0 0.00 0.00 0.00 77 1011.9
20160726053731 75 347 0.0 0.0 0.00 0.00 0.00 77 1011.9
20160726051732 75 347 0.0 0.0 0.00 0.00 0.00 77 1011.9
20160726050732 76 347 0.0 0.0 0.00 0.00 0.00 76 1011.9
20160726045732 76 347 0.0 0.0 0.00 0.00 0.00 76 1011.9
20160726044732 76 347 0.0 0.0 0.00 0.00 0.00 76 1011.9
20160726043733 77 347 0.0 0.0 0.00 0.00 0.00 75 1012.0
20160726042732 77 347 0.0 0.0 0.00 0.00 0.00 75 1012.0
20160726040732 78 347 0.0 0.0 0.00 0.00 0.00 73 1012.4
20160726035733 78 347 0.0 0.0 0.00 0.00 0.00 73 1012.3
20160726034732 78 347 0.0 0.0 0.00 0.00 0.00 73 1012.2
20160726033733 79 347 0.0 0.0 0.00 0.00 0.00 72 1012.3
20160726032732 79 347 0.0 0.0 0.00 0.00 0.00 71 1012.4
20160726031733 79 347 0.0 0.0 0.00 0.00 0.00 70 1012.4
20160726030732 79 347 0.0 0.0 0.00 0.00 0.00 71 1012.4
20160726024732 80 347 0.0 0.0 0.00 0.00 0.00 70 1012.5
20160726023733 80 347 0.0 0.0 0.00 0.00 0.00 69 1012.4
20160726022733 80 347 0.0 0.0 0.00 0.00 0.00 68 1012.4
20160726021732 80 347 0.0 0.0 0.00 0.00 0.00 67 1012.4
20160726015732 81 347 0.0 0.0 0.00 0.00 0.00 66 1011.9
20160726014733 81 347 0.0 0.0 0.00 0.00 0.00 65 1011.9
20160726013733 82 347 0.0 0.0 0.00 0.00 0.00 64 1011.8
20160726012732 82 347 0.0 0.0 0.00 0.00 0.00 63 1011.5
20160726010733 83 347 0.0 0.0 0.00 0.00 0.00 62 1011.3
20160726005733 84 347 0.0 0.0 0.00 0.00 0.00 60 1011.3
20160726004733 84 347 0.0 0.0 0.00 0.00 0.00 60 1011.3
20160726003732 85 347 0.0 0.0 0.00 0.00 0.00 58 1011.3
20160726002733 86 347 0.0 0.0 0.00 0.00 0.00 57 1011.2
20160726001733 87 347 0.0 0.0 0.00 0.00 0.00 56 1011.0
20160726000733 87 347 0.0 0.0 0.00 0.00 0.00 55 1010.8
20160725235733 88 347 0.0 0.0 0.00 0.00 0.00 54 1011.0
20160725234733 88 347 0.0 1.0 0.00 0.00 0.00 53 1010.8
20160725233733 88 347 0.0 5.0 0.00 0.00 0.00 53 1010.8
20160725232733 89 347 2.0 3.0 0.00 0.00 0.00 52 1010.8
20160725231733 89 257 3.0 9.0 0.00 0.00 0.00 51 1010.7
20160725225733 90 225 3.0 8.0 0.00 0.00 0.00 51 1010.4
20160725224733 90 194 5.0 10.0 0.00 0.00 0.00 50 1010.3
20160725223734 90 254 7.0 12.0 0.00 0.00 0.00 51 1010.2
20160725222733 90 217 7.0 12.0 0.00 0.00 0.00 51 1010.2
20160725221733 89 231 7.0 13.0 0.00 0.00 0.00 52 1010.2
20160725220733 89 259 7.0 15.0 0.00 0.00 0.00 52 1010.2
20160725215733 89 254 9.0 13.0 0.00 0.00 0.00 53 1010.3
20160725213733 89 228 5.0 9.0 0.00 0.00 0.00 54 1010.1
20160725210733 89 235 5.0 14.0 0.00 0.00 0.00 53 1010.2
20160725205733 91 228 8.0 12.0 0.00 0.00 0.00 51 1010.2
20160725204734 92 225 8.0 20.0 0.00 0.00 0.00 50 1010.0
20160725203733 95 251 12.0 20.0 0.00 0.00 0.00 48 1010.0
20160725202733 95 250 3.0 9.0 0.00 0.00 0.00 46 1009.9
20160725201733 94 246 0.0 7.0 0.00 0.00 0.00 47 1010.1
20160725195733 95 281 1.0 5.0 0.00 0.00 0.00 47 1010.1
20160725194734 95 281 1.0 12.0 0.00 0.00 0.00 47 1010.2
20160725193734 94 255 3.0 7.0 0.00 0.00 0.00 48 1010.2
20160725192734 93 17 2.0 7.0 0.00 0.00 0.00 48 1010.7
20160725191734 93 326 0.0 6.0 0.00 0.00 0.00 50 1010.8
20160725190734 93 4 1.0 9.0 0.00 0.00 0.00 50 1010.9
20160725184733 94 257 3.0 6.0 0.00 0.00 0.00 51 1011.3
20160725183734 94 258 2.0 8.0 0.00 0.00 0.00 51 1011.5
20160725182733 94 17 1.0 9.0 0.00 0.00 0.00 53 1011.7
20160725180734 93 5 4.0 8.0 0.00 0.00 0.00 55 1012.1
20160725175734 93 255 1.0 6.0 0.00 0.00 0.00 56 1012.2
20160725173733 91 265 3.0 12.0 0.00 0.00 0.00 56 1012.3
20160725172734 90 246 6.0 12.0 0.00 0.00 0.00 55 1012.3
20160725171734 91 271 3.0 9.0 0.00 0.00 0.00 57 1012.4
20160725164734 89 258 0.0 0.0 0.00 0.00 0.00 61 1012.7
20160725163734 89 254 0.0 1.0 0.00 0.00 0.00 62 1012.8
20160725162734 88 249 0.0 1.0 0.00 0.00 0.00 63 1012.8
20160725161734 88 265 0.0 1.0 0.00 0.00 0.00 64 1012.8
20160725160734 88 224 0.0 0.0 0.00 0.00 0.00 66 1012.9
20160725155735 87 250 0.0 0.0 0.00 0.00 0.00 67 1013.1
20160725153735 86 263 0.0 0.0 0.00 0.00 0.00 69 1013.1
20160725152735 85 246 0.0 1.0 0.00 0.00 0.00 70 1013.2
20160725151735 85 216 0.0 1.0 0.00 0.00 0.00 73 1013.1
20160725150735 85 231 0.0 0.0 0.00 0.00 0.00 74 1013.1
20160725145734 85 254 0.0 1.0 0.00 0.00 0.00 74 1013.4
20160725144734 85 225 0.0 0.0 0.00 0.00 0.00 75 1013.4
20160725143735 84 247 0.0 0.0 0.00 0.00 0.00 77 1013.4
20160725141735 83 323 0.0 0.0 0.00 0.00 0.00 79 1013.6
20160725134734 81 336 0.0 0.0 0.00 0.00 0.00 81 1013.9
20160725133735 80 336 0.0 0.0 0.00 0.00 0.00 82 1014.0
20160725132734 80 336 0.0 0.0 0.00 0.00 0.00 83 1014.0
20160725125734 77 319 0.0 0.0 0.00 0.00 0.00 85 1014.1
20160725124734 75 290 0.0 0.0 0.00 0.00 0.00 85 1014.1
20160725122734 73 290 0.0 0.0 0.00 0.00 0.00 85 1014.1
20160725120735 72 290 0.0 0.0 0.00 0.00 0.00 86 1013.9
20160725115735 71 290 0.0 0.0 0.00 0.00 0.00 85 1013.7
20160725114735 71 5 0.0 0.0 0.00 0.00 0.00 85 1013.7
20160725113734 70 50 0.0 0.0 0.00 0.00 0.00 85 1013.6
20160725111735 69 50 0.0 0.0 0.00 0.00 0.00 85 1013.4
20160725110735 69 50 0.0 0.0 0.00 0.00 0.00 85 1013.5
20160725104735 69 50 0.0 0.0 0.00 0.00 0.00 84 1013.5
20160725103735 69 50 0.0 0.0 0.00 0.00 0.00 85 1013.3
20160725100735 69 50 0.0 0.0 0.00 0.00 0.00 84 1013.1
20160725095735 69 50 0.0 0.0 0.00 0.00 0.00 84 1013.1
20160725094735 69 50 0.0 0.0 0.00 0.00 0.00 84 1013.1
20160725092736 69 50 0.0 0.0 0.00 0.00 0.00 84 1013.1
20160725091735 69 50 0.0 0.0 0.00 0.00 0.00 84 1013.1
20160725090735 69 50 0.0 0.0 0.00 0.00 0.00 84 1013.1
20160725085736 69 50 0.0 0.0 0.00 0.00 0.00 83 1013.1
20160725084736 69 50 0.0 0.0 0.00 0.00 0.00 83 1013.1
20160725083735 69 50 0.0 0.0 0.00 0.00 0.00 83 1013.1
20160725082736 69 50 0.0 0.0 0.00 0.00 0.00 82 1013.1
20160725081736 69 50 0.0 0.0 0.00 0.00 0.00 83 1013.1
20160725080736 69 50 0.0 0.0 0.00 0.00 0.00 82 1013.1
20160725075736 70 50 0.0 0.0 0.00 0.00 0.00 82 1012.7
20160725074736 70 50 0.0 0.0 0.00 0.00 0.00 82 1012.6
20160725073736 70 50 0.0 0.0 0.00 0.00 0.00 81 1012.6
20160725072736 70 50 0.0 0.0 0.00 0.00 0.00 81 1012.6
20160725071736 70 50 0.0 0.0 0.00 0.00 0.00 81 1012.5
20160725070736 70 50 0.0 0.0 0.00 0.00 0.00 80 1012.5
20160725065736 71 50 0.0 0.0 0.00 0.00 0.00 80 1012.2
20160725064736 71 50 0.0 0.0 0.00 0.00 0.00 80 1012.2